NILESAT 102

导读

NILESAT 102由埃及发射,于2000年8月17日升空,是尼罗卫星系列的通信卫星。它主要为中东、北非地区提供电视广播、通信传输服务,支持多语种节目信号转发,满足区域民众视听需求,助力当地传媒产业发展,服役后长期稳定承担卫星通信转播任务,是埃及卫星通信布局中的重要节点。

基本信息
目录编号:
26470
目录名称:
NILESAT 102
国际标识:
2000-046B
轨道中心:
EARTH
卫星名称:
NILESAT 102
卫星全名:
--
卫星状态:
在轨 (已飞行9433 天)
发射日期:
2000-08-17 UTC
国别 :
埃及 (EG)
星等 :
--
轨道信息
数据来源 国际轨道数据 AOE轨道数据
星历时间 2026-06-14T17:39:51+0800
19小时前
查看轨道信息
2026-06-15T08:00:00+0800
5小时前
查看轨道信息
半长轴 42801.116km 42801.087km
偏心率 0.0004912 0.0004914
轨道倾角 9.359° 9.361°
近地点辐角 57.035° 56.224°
升交点赤经 59.482° 59.476°
平近点角 286.944° 138.594°
近地点 36401.955km 36401.917km
远地点 36444.003km 36443.983km
周期 1468.731分钟 1468.730分钟
每日圈数 0.980438 0.980439
详细信息
使用方式:
暂无
2D轨道图
3D轨道图
轨道高度分析图
轨道倾角分析图
轨道综合分析图
查看轨道综合分析图